Stations météo

réclame
Mon MeteoGroup
Barranda, Espagne (8365): Température de l'air & dewpoint: 18.05.2019 03:00:00 - 24.05.2019 03:00:00 (CEST)Barranda, Espagne (8365): Vitesse du vent & gusts: 18.05.2019 03:00:00 - 24.05.2019 03:00:00 (CEST)Barranda, Espagne (8365): Direction du vent: 18.05.2019 03:00:00 - 24.05.2019 03:00:00 (CEST)Barranda, Espagne (8365): reduced air pressure: 18.05.2019 03:00:00 - 24.05.2019 03:00:00 (CEST)Barranda, Espagne (8365): visibility: 18.05.2019 03:00:00 - 24.05.2019 03:00:00 (CEST)Barranda, Espagne (8365): Ensoleillement: 18.05.2019 03:00:00 - 24.05.2019 03:00:00 (CEST)Barranda, Espagne (8365): Quantités de précipitations: 18.05.2019 03:00:00 - 24.05.2019 03:00:00 (CEST)
Date & Time tt [°C] td [°C] ff [km/h] ff [knt] fx [km/h] fx [knt] dd ppp [hPa] vv [km] sd [min] rr [mm]
24.05.2019 03:00:00 - - - - - - - - - - -
24.05.2019 02:00:00 18,4 2,3 11 6 22 12 WSW 1014,1 20 0 -
24.05.2019 01:00:00 18,8 2,7 10 6 20 11 SW 1014,6 20 0 0,0
24.05.2019 00:00:00 19,6 2,1 10 5 22 12 WSW 1014,7 20 0 0,0
23.05.2019 23:00:00 20,7 1,1 12 7 21 11 W 1014,5 20 0 0,0
23.05.2019 22:00:00 21,9 1,1 11 6 22 12 W 1013,8 20 0 0,0
23.05.2019 21:00:00 23,1 1,5 10 5 21 11 W 1013,5 20 0 0,0
23.05.2019 20:00:00 25,2 2,7 10 6 28 15 S 1012,6 20 33 -
23.05.2019 19:00:00 27,0 3,4 14 8 27 14 S 1012,2 20 42 0,0
23.05.2019 18:00:00 26,7 4,5 10 5 23 12 E 1012,4 20 3 0,0
23.05.2019 17:00:00 28,0 4,3 10 6 22 12 ESE 1012,5 20 25 0,0
23.05.2019 16:00:00 29,0 5,1 10 5 27 15 E 1012,7 20 33 0,0
23.05.2019 15:00:00 29,2 6,5 13 7 28 15 E 1013,3 20 55 0,0
23.05.2019 14:00:00 27,7 7,0 9 5 23 12 ENE 1014,1 20 60 -
23.05.2019 13:00:00 25,6 7,7 9 5 21 12 ENE 1015,1 20 60 0,0
23.05.2019 12:00:00 25,2 6,8 10 5 14 8 E 1015,6 20 60 0,0
23.05.2019 11:00:00 23,7 7,3 10 5 16 9 E 1016,2 20 60 0,0
23.05.2019 10:00:00 21,8 6,1 9 5 22 12 SW 1016,8 20 60 0,0
23.05.2019 09:00:00 19,4 5,8 8 4 20 11 SW 1017,3 20 60 0,0
23.05.2019 08:00:00 16,1 3,8 13 7 21 11 W 1018,1 20 38 -
23.05.2019 07:00:00 11,9 4,8 6 3 14 7 SW 1019,1 20 0 0,0
23.05.2019 06:00:00 12,1 4,8 5 3 14 7 SW 1018,9 20 0 0,0
23.05.2019 05:00:00 13,9 4,8 10 5 18 10 W 1018,3 20 0 0,0
23.05.2019 04:00:00 13,3 5,0 8 4 22 12 W 1018,6 20 0 0,0
23.05.2019 03:00:00 13,9 5,3 10 5 23 13 W 1018,9 20 0 0,0
23.05.2019 02:00:00 14,8 5,3 11 6 27 14 WSW 1018,5 20 0 -
23.05.2019 01:00:00 15,6 5,1 13 7 22 12 WSW 1018,4 20 0 0,0
23.05.2019 00:00:00 16,9 5,1 10 6 19 10 SSW 1018,1 20 0 0,0
22.05.2019 23:00:00 18,8 3,4 9 5 21 12 W 1017,6 20 0 0,0
22.05.2019 22:00:00 19,3 3,4 14 8 26 14 W 1017,1 20 0 0,0
22.05.2019 21:00:00 20,7 3,4 12 6 22 12 W 1016,2 20 0 0,0
22.05.2019 20:00:00 22,9 3,9 8 4 25 13 SW 1015,3 20 39 -
22.05.2019 19:00:00 24,7 4,5 8 4 22 12 SSE 1014,4 20 44 0,0
22.05.2019 18:00:00 24,2 5,0 9 5 21 11 ESE 1014,5 20 0 0,0
22.05.2019 17:00:00 25,5 5,6 4 2 21 12 ENE 1014,3 20 22 0,0
22.05.2019 16:00:00 25,0 6,2 5 3 20 11 NE 1014,6 20 24 0,0
22.05.2019 15:00:00 24,4 8,0 6 3 21 11 E 1015,1 20 33 0,0
22.05.2019 14:00:00 23,6 8,8 8 4 21 12 E 1015,6 20 36 -
22.05.2019 13:00:00 24,9 8,8 10 5 19 11 E 1015,7 20 60 0,0
22.05.2019 12:00:00 24,1 8,1 10 5 18 10 E 1016,0 20 60 0,0
22.05.2019 11:00:00 22,9 7,8 7 4 21 11 S 1016,1 20 60 0,0
22.05.2019 10:00:00 19,1 8,7 - - - - - 1017,2 20 60 0,0
22.05.2019 09:00:00 16,3 9,0 3 1 10 5 SSW 1017,6 20 60 0,0
22.05.2019 08:00:00 10,6 7,7 1 1 6 3 N 1018,9 20 45 -
22.05.2019 07:00:00 9,7 6,2 8 5 - - W 1018,8 20 0 0,0
22.05.2019 06:00:00 9,8 6,1 12 6 19 11 W 1018,6 20 0 0,0
22.05.2019 05:00:00 10,4 6,4 11 6 18 10 W 1018,4 20 0 0,0
22.05.2019 04:00:00 10,5 6,4 8 4 18 10 WSW 1018,3 20 0 0,0
22.05.2019 03:00:00 10,5 6,2 11 6 16 9 W 1018,5 20 0 0,0
22.05.2019 02:00:00 10,2 6,8 4 2 7 4 W 1018,9 20 0 -
22.05.2019 01:00:00 11,5 6,7 4 2 9 5 W 1018,6 20 0 0,0
22.05.2019 00:00:00 13,1 7,3 4 2 13 7 NNW 1018,3 20 0 0,0
21.05.2019 23:00:00 15,8 8,3 9 5 15 8 WSW 1016,8 20 0 0,0
21.05.2019 22:00:00 16,1 8,5 6 4 11 6 WSW 1016,1 20 0 0,0
21.05.2019 21:00:00 16,7 11,7 5 3 9 5 NE 1015,5 20 0 0,0
21.05.2019 20:00:00 18,5 8,1 3 2 15 8 W 1014,4 20 0 -
21.05.2019 19:00:00 18,7 8,7 7 4 24 13 W 1014,5 20 0 0,0
21.05.2019 18:00:00 19,5 7,6 14 8 32 17 SW 1014,1 20 7 0,0
21.05.2019 17:00:00 20,5 6,1 11 6 22 12 SSE 1013,6 20 6 0,0
21.05.2019 16:00:00 21,9 5,0 7 4 30 16 E 1013,1 20 24 0,0
21.05.2019 15:00:00 23,6 6,8 16 9 28 15 E 1012,4 20 57 0,0
21.05.2019 14:00:00 23,4 8,7 11 6 22 12 NNE 1012,7 20 60 -
21.05.2019 13:00:00 - - - - - - - - - - -
21.05.2019 12:00:00 19,9 8,9 8 4 13 7 ESE 1014,0 20 40 0,0
21.05.2019 11:00:00 18,1 9,4 5 3 15 8 ESE 1014,6 20 41 0,0
21.05.2019 10:00:00 16,6 9,3 6 4 11 6 E 1014,6 20 23 0,0
21.05.2019 09:00:00 14,5 5,8 2 1 5 3 E 1014,9 20 3 0,0
21.05.2019 08:00:00 12,1 5,9 2 1 13 7 E 1014,9 3,4 0 -
21.05.2019 07:00:00 11,7 4,5 6 3 10 6 W 1014,5 20 0 0,0
21.05.2019 06:00:00 9,9 4,8 3 2 7 4 WSW 1014,9 20 0 0,0
21.05.2019 05:00:00 - - - - - - - - - - -
21.05.2019 04:00:00 12,3 5,3 3 2 11 6 WNW 1014,2 20 0 0,0
21.05.2019 03:00:00 12,5 4,1 4 2 10 6 W 1014,2 20 0 0,0
21.05.2019 02:00:00 12,7 3,6 5 3 12 6 SSW 1014,5 20 0 -
21.05.2019 01:00:00 14,4 3,2 9 5 14 7 WSW 1014,2 20 0 0,0
21.05.2019 00:00:00 15,6 2,5 7 4 14 7 W 1013,6 20 0 0,0
20.05.2019 23:00:00 16,8 3,0 9 5 20 11 W 1013,2 20 0 0,0
20.05.2019 22:00:00 18,0 3,8 13 7 21 12 W 1012,0 20 0 0,0
20.05.2019 21:00:00 19,0 2,3 8 5 19 10 W 1011,0 20 0 0,0
20.05.2019 20:00:00 20,6 2,9 10 6 23 13 S 1010,1 20 0 -
20.05.2019 19:00:00 20,5 6,8 10 6 26 14 E 1009,8 20 1 0,0
20.05.2019 18:00:00 21,4 6,1 16 9 29 16 E 1009,4 20 0 0,0
20.05.2019 17:00:00 23,3 1,1 12 6 26 14 ESE 1008,9 20 3 0,0
20.05.2019 16:00:00 24,9 -1,0 10 5 23 12 SE 1008,6 20 42 0,0
20.05.2019 15:00:00 26,4 -2,2 9 5 29 16 SW 1008,8 20 56 0,0
20.05.2019 14:00:00 24,8 -1,2 9 5 23 12 E 1009,6 20 60 -
20.05.2019 13:00:00 23,5 -1,4 8 5 23 13 ESE 1010,5 20 58 0,0
20.05.2019 12:00:00 22,6 0,4 10 6 20 11 E 1010,9 20 60 0,0
20.05.2019 11:00:00 21,0 0,9 11 6 21 11 E 1011,3 20 60 0,0
20.05.2019 10:00:00 19,5 -0,5 5 3 9 5 ENE 1011,7 20 60 0,0
20.05.2019 09:00:00 16,0 0,9 2 1 9 5 NE 1012,4 20 60 0,0
20.05.2019 08:00:00 11,0 1,1 3 2 20 11 W 1013,5 20 54 -
20.05.2019 07:00:00 9,5 -1,2 13 7 22 12 WSW 1013,2 20 0 0,0
20.05.2019 06:00:00 10,1 -0,5 13 7 21 12 W 1012,9 20 0 0,0
20.05.2019 05:00:00 11,2 -0,7 11 6 21 11 W 1012,6 20 0 0,0
20.05.2019 04:00:00 11,6 -0,3 10 6 17 9 WSW 1012,5 20 0 0,0
20.05.2019 03:00:00 12,0 -0,5 13 7 21 11 WSW 1012,8 20 0 0,0
20.05.2019 02:00:00 13,3 -1,4 9 5 17 9 W 1012,9 20 0 -
20.05.2019 01:00:00 13,5 -0,3 9 5 16 9 W 1013,0 20 0 0,0
20.05.2019 00:00:00 - - - - - - - - - - -
19.05.2019 23:00:00 15,7 -1,0 6 3 12 6 WSW 1011,7 20 0 0,0
19.05.2019 22:00:00 - - - - - - - - - - -
19.05.2019 21:00:00 18,0 -1,7 5 3 18 10 WNW 1009,9 20 0 0,0
19.05.2019 20:00:00 - - - - - - - - - - -
19.05.2019 19:00:00 - - - - - - - - - - -
19.05.2019 18:00:00 22,0 -2,7 10 5 29 16 NNW 1007,5 20 23 0,0
19.05.2019 17:00:00 - - - - - - - - - - -
19.05.2019 16:00:00 21,1 -3,6 6 4 24 13 WNW 1008,1 20 18 0,0
19.05.2019 15:00:00 21,2 -3,3 10 6 23 12 E 1008,3 20 37 0,0
19.05.2019 14:00:00 22,8 -1,4 6 4 21 11 S 1008,2 20 51 -
19.05.2019 13:00:00 - - - - - - - - - - -
19.05.2019 12:00:00 20,0 -1,2 9 5 21 12 ESE 1009,4 20 50 0,0
19.05.2019 11:00:00 18,9 -1,7 6 3 11 6 NE 1009,9 20 59 0,0
19.05.2019 10:00:00 17,6 -0,7 6 4 11 6 E 1010,5 20 60 0,0
19.05.2019 09:00:00 - - - - - - - - - - -
19.05.2019 08:00:00 11,4 0,9 4 2 13 7 ESE 1011,6 20 10 -
19.05.2019 07:00:00 10,8 -1,2 5 3 13 7 WSW 1011,3 20 0 0,0
19.05.2019 06:00:00 12,1 -2,2 9 5 14 8 WSW 1010,9 20 0 0,0
19.05.2019 05:00:00 12,9 -3,0 6 3 23 13 NW 1010,6 20 0 0,0
19.05.2019 04:00:00 13,3 -3,0 7 4 17 9 WNW 1010,6 20 0 0,0
19.05.2019 03:00:00 11,5 -3,0 7 4 16 9 W 1011,7 20 0 0,0
19.05.2019 02:00:00 11,6 -1,2 12 6 16 9 WSW 1012,2 20 0 -
19.05.2019 01:00:00 12,0 -1,2 8 4 16 9 WSW 1012,2 20 0 0,0
19.05.2019 00:00:00 - - - - - - - - - - -
18.05.2019 23:00:00 11,3 0,0 4 2 12 6 NW 1012,3 20 0 0,0
18.05.2019 22:00:00 - - - - - - - - - - -
18.05.2019 21:00:00 - - - - - - - - - - -
18.05.2019 20:00:00 17,7 -0,5 6 3 28 15 NW 1008,7 20 25 -
18.05.2019 19:00:00 19,6 -1,4 12 7 25 14 W 1007,6 20 36 0,0
18.05.2019 18:00:00 19,4 -0,7 11 6 39 21 NW 1007,3 20 23 0,0
18.05.2019 17:00:00 20,8 -1,2 11 6 41 22 WNW 1006,4 20 50 0,0
18.05.2019 16:00:00 21,5 -1,7 12 6 29 16 WNW 1006,0 20 20 0,0
18.05.2019 15:00:00 - - - - - - - - - - -
18.05.2019 14:00:00 19,8 -0,3 7 4 25 14 NNW 1007,0 20 44 -
18.05.2019 13:00:00 20,6 0,0 7 4 25 14 WSW 1007,2 20 60 0,0
18.05.2019 12:00:00 18,5 -0,5 7 4 24 13 NW 1008,0 20 54 0,0
18.05.2019 11:00:00 18,8 0,4 9 5 34 18 SW 1007,8 20 60 0,0
18.05.2019 10:00:00 15,4 1,5 9 5 19 10 WSW 1008,8 20 5 0,0
18.05.2019 09:00:00 14,2 0,0 6 3 21 12 NW 1009,1 20 0 0,0
18.05.2019 08:00:00 12,2 0,6 9 5 26 14 WSW 1009,6 20 0 -
18.05.2019 07:00:00 12,3 0,0 15 8 24 13 WSW 1009,4 20 0 0,0
18.05.2019 06:00:00 9,9 1,3 4 2 12 6 SSE 1009,2 20 0 0,0
18.05.2019 05:00:00 9,1 1,3 5 3 13 7 W 1009,9 20 0 0,0
18.05.2019 04:00:00 10,8 0,4 6 4 14 8 SSW 1010,2 20 0 0,0
18.05.2019 03:00:00 10,1 1,5 4 2 10 6 NNW 1010,9 20 0 0,0

tt = Température de l'air
td = dewpoint
ff = Vitesse du vent
fx = gusts
dd = Direction du vent
ppp = reduced air pressure
vv = visibility
sd = Ensoleillement
rr = Quantités de précipitations

stations d'obs. à proximité